OM2WX-6 Weather Reports


time (UTC)temp
C
wind
direction
speed
KPH
gust
KPH
rain 1hr
cm
rain 24hr
cm
rain mn
cm
humidity
%
barometer
mb
20260507125941 21 90 0.0 0.0 0.00 0.00 0.00 51 1004.4
20260507125441 21 90 0.0 0.0 0.00 0.00 0.00 51 1004.4
20260507124941 21 90 0.0 0.0 0.00 0.00 0.00 51 1004.4
20260507124441 21 90 0.0 0.0 0.00 0.00 0.00 51 1005.5
20260507123941 21 90 0.0 0.0 0.00 0.00 0.00 10 1007.5
20260507123441 -17 180 0.0 0.0 0.00 0.00 0.00 1007.5
20260507122941 -17 180 0.0 0.0 0.00 0.00 0.00 1004.8
20260507122441 20 180 0.0 0.0 0.00 0.00 0.00 51 1002.9
20260507121941 20 180 0.0 0.0 0.00 0.00 0.00 51 1006.0
20260507121441 20 180 0.0 0.0 0.00 0.00 0.00 51 1006.0
20260507120941 20 202 0.0 0.0 0.00 0.00 0.00 52 1008.0
20260507120441 -17 202 0.0 0.0 0.00 0.00 0.00 1007.6
20260507115941 -17 202 0.0 0.0 0.00 0.00 0.00 1000.2
20260507115441 20 202 0.0 0.0 0.00 0.00 0.00 53 1001.1
20260507114941 20 202 0.0 3.2 0.00 0.00 0.00 53 1005.3
20260507114442 20 202 0.0 3.2 0.00 0.00 0.00 53 1006.6
20260507113941 20 202 0.0 0.0 0.00 0.00 0.00 53 1007.9
20260507113441 -17 202 0.0 0.0 0.00 0.00 0.00 1007.6
20260507112941 -17 202 0.0 0.0 0.00 0.00 0.00 1004.7
20260507112441 20 202 0.0 0.0 0.00 0.00 0.00 53 1001.1
20260507111941 20 202 0.0 4.8 0.00 0.00 0.00 53 1004.4
20260507111441 20 202 0.0 0.0 0.00 0.00 0.00 10 1007.7
20260507110941 -17 202 0.0 0.0 0.00 0.00 0.00 1007.9
20260507110441 -17 202 0.0 0.0 0.00 0.00 0.00 1002.7
20260507105941 20 202 0.0 0.0 0.00 0.00 0.00 54 1006.2
20260507105441 20 202 0.0 0.0 0.00 0.00 0.00 54 1006.2
20260507104941 20 202 0.0 3.2 0.00 0.00 0.00 54 1006.3
20260507104441 -17 202 0.0 0.0 0.00 0.00 0.00 1008.2
20260507103941 -17 202 0.0 0.0 0.00 0.00 0.00 1007.9
20260507103441 19 202 0.0 0.0 0.00 0.00 0.00 54 1000.7
20260507102941 19 202 0.0 0.0 0.00 0.00 0.00 54 1003.8
20260507102441 19 202 0.0 0.0 0.00 0.00 0.00 54 1005.6
20260507101941 19 202 0.0 0.0 0.00 0.00 0.00 54 1007.3
20260507101441 -17 202 0.0 0.0 0.00 0.00 0.00 1008.4
20260507100941 -17 202 0.0 0.0 0.00 0.00 0.00 1006.6
20260507100442 18 202 0.0 0.0 0.00 0.00 0.00 55 1001.1
20260507095941 18 202 0.0 0.0 0.00 0.00 0.00 55 1004.9
20260507095441 18 202 0.0 1.6 0.00 0.00 0.00 55 1006.2
20260507094941 18 202 0.0 1.6 0.00 0.00 0.00 56 1007.8
20260507094441 -17 202 0.0 0.0 0.00 0.00 0.00 1008.1
20260507093941 -17 202 0.0 0.0 0.00 0.00 0.00 1004.5
20260507093441 18 202 0.0 0.0 0.00 0.00 0.00 55 1005.5
20260507092941 18 202 0.0 3.2 0.00 0.00 0.00 55 1006.2
20260507092441 18 202 0.0 0.0 0.00 0.00 0.00 55 1006.7
20260507091941 18 202 0.0 0.0 0.00 0.00 0.00 55 1006.3
20260507091441 -17 202 0.0 0.0 0.00 0.00 0.00 1008.1
20260507090941 -17 202 0.0 0.0 0.00 0.00 0.00 1007.5
20260507090441 19 202 0.0 0.0 0.00 0.00 0.00 55 1002.7
20260507085941 19 202 0.0 0.0 0.00 0.00 0.00 55 1002.7
20260507085441 19 202 0.0 9.7 0.00 0.00 0.00 55 1005.4
20260507084941 19 202 3.2 9.7 0.00 0.00 0.00 56 1006.2
20260507084441 -17 180 0.0 0.0 0.00 0.00 0.00 1007.9
20260507083941 -17 180 0.0 0.0 0.00 0.00 0.00 1007.3
20260507083441 19 180 0.0 0.0 0.00 0.00 0.00 56 1001.5
20260507082941 19 180 0.0 0.0 0.00 0.00 0.00 56 1005.5
20260507082441 19 180 0.0 0.0 0.00 0.00 0.00 56 1005.5
20260507081941 19 202 0.0 0.0 0.00 0.00 0.00 10 1007.4
20260507081441 -17 202 0.0 0.0 0.00 0.00 0.00 1007.1
20260507080941 -17 202 0.0 0.0 0.00 0.00 0.00 1000.4
20260507080441 19 202 0.0 0.0 0.00 0.00 0.00 56 1005.7
20260507075941 19 202 0.0 4.8 0.00 0.00 0.00 56 1005.7
20260507075441 -17 180 0.0 0.0 0.00 0.00 0.00 1007.0
20260507074941 -17 180 0.0 0.0 0.00 0.00 0.00 1006.8
20260507074441 18 180 0.0 0.0 0.00 0.00 0.00 57 1003.5
20260507073941 18 180 0.0 0.0 0.00 0.00 0.00 57 1003.5
20260507073441 18 180 0.0 0.0 0.00 0.00 0.00 57 1004.3
20260507072941 18 202 0.0 6.4 0.00 0.00 0.00 58 1005.6
20260507072441 -17 202 0.0 0.0 0.00 0.00 0.00 1006.8
20260507071941 -17 202 0.0 0.0 0.00 0.00 0.00 1006.4
20260507071441 18 202 0.0 0.0 0.00 0.00 0.00 60 1000.7
20260507070941 18 202 0.0 0.0 0.00 0.00 0.00 60 1005.2
20260507070441 18 202 0.0 4.8 0.00 0.00 0.00 61 1004.5
20260507065941 18 202 0.0 3.2 0.00 0.00 0.00 60 1004.5
20260507065441 18 202 0.0 9.7 0.00 0.00 0.00 61 1005.1
20260507064941 18 202 0.0 1.6 0.00 0.00 0.00 62 1005.7
20260507064441 -17 202 0.0 0.0 0.00 0.00 0.00 1006.7
20260507063941 -17 202 0.0 0.0 0.00 0.00 0.00 1005.5
20260507063442 17 202 0.0 0.0 0.00 0.00 0.00 63 1001.6
20260507062941 17 202 0.0 0.0 0.00 0.00 0.00 63 1004.3
20260507062441 17 202 0.0 0.0 0.00 0.00 0.00 63 1004.7
20260507061941 17 202 0.0 0.0 0.00 0.00 0.00 63 1004.0
20260507061442 17 202 0.0 0.0 0.00 0.00 0.00 63 1004.7
20260507060942 17 270 0.0 0.0 0.00 0.00 0.00 63 1005.0
20260507060442 17 202 0.0 0.0 0.00 0.00 0.00 64 1005.3
20260507055942 16 202 0.0 0.0 0.00 0.00 0.00 64 1006.5
20260507055442 16 202 0.0 0.0 0.00 0.00 0.00 64 1006.6
20260507054942 16 202 0.0 0.0 0.00 0.00 0.00 64 1006.3
20260507054442 16 202 0.0 0.0 0.00 0.00 0.00 64 1005.5
20260507053942 -17 202 0.0 0.0 0.00 0.00 0.00 1006.2
20260507053442 -17 202 0.0 0.0 0.00 0.00 0.00 1005.8
20260507052942 16 202 0.0 0.0 0.00 0.00 0.00 65 998.4
20260507052442 16 202 0.0 0.0 0.00 0.00 0.00 65 999.7
20260507051942 16 202 0.0 0.0 0.00 0.00 0.00 65 1004.0
20260507051442 16 202 0.0 0.0 0.00 0.00 0.00 65 1004.2
20260507050942 16 202 0.0 0.0 0.00 0.00 0.00 66 1005.7
20260507050442 -17 202 0.0 0.0 0.00 0.00 0.00 1005.5
20260507045942 -17 202 0.0 0.0 0.00 0.00 0.00 998.3
20260507045442 16 202 0.0 0.0 0.00 0.00 0.00 66 1003.4
20260507044942 16 202 0.0 0.0 0.00 0.00 0.00 66 1003.4
20260507044442 16 202 0.0 0.0 0.00 0.00 0.00 66 1003.5
20260507043942 16 202 0.0 0.0 0.00 0.00 0.00 66 1004.7
20260507043442 -17 202 0.0 0.0 0.00 0.00 0.00 1005.4
20260507042942 -17 202 0.0 0.0 0.00 0.00 0.00 1005.0
20260507042442 16 202 0.0 0.0 0.00 0.00 0.00 67 1001.2
20260507041942 16 202 0.0 0.0 0.00 0.00 0.00 67 1001.2
20260507041442 16 202 0.0 0.0 0.00 0.00 0.00 67 1003.8
20260507040942 16 202 0.0 0.0 0.00 0.00 0.00 67 1004.2
20260507040442 -17 202 0.0 0.0 0.00 0.00 0.00 1005.0
20260507035942 -17 202 0.0 0.0 0.00 0.00 0.00 1003.1
20260507035442 16 202 0.0 0.0 0.00 0.00 0.00 67 999.1
20260507034942 16 202 0.0 0.0 0.00 0.00 0.00 67 1002.3
20260507034442 16 202 0.0 0.0 0.00 0.00 0.00 67 1004.0
20260507033942 -17 202 0.0 0.0 0.00 0.00 0.00 1005.0
20260507033442 -17 202 0.0 0.0 0.00 0.00 0.00 1004.5
20260507032942 16 202 0.0 0.0 0.00 0.00 0.00 67 996.7
20260507032442 16 202 0.0 0.0 0.00 0.00 0.00 67 999.6
20260507031942 16 202 0.0 0.0 0.00 0.00 0.00 67 1002.1
20260507031442 16 202 0.0 0.0 0.00 0.00 0.00 67 1002.5
20260507030942 16 202 0.0 0.0 0.00 0.00 0.00 67 1003.0
20260507030442 16 202 0.0 0.0 0.00 0.00 0.00 67 1003.9
20260507025942 -17 180 0.0 0.0 0.00 0.00 0.00 1004.5
20260507025442 -17 180 0.0 0.0 0.00 0.00 0.00 1000.7
20260507024942 16 180 0.0 0.0 0.00 0.00 0.00 67 1001.2
20260507024442 16 180 0.0 0.0 0.00 0.00 0.00 67 1001.2
20260507023942 16 202 0.0 0.0 0.00 0.00 0.00 67 1002.8
20260507023442 16 202 0.0 0.0 0.00 0.00 0.00 67 1003.4
20260507022942 -17 202 0.0 0.0 0.00 0.00 0.00 1004.5
20260507022442 -17 202 0.0 0.0 0.00 0.00 0.00 1004.1
20260507021942 16 202 0.0 0.0 0.00 0.00 0.00 67 998.5
20260507021442 16 202 0.0 0.0 0.00 0.00 0.00 67 1001.9
20260507020942 16 202 0.0 0.0 0.00 0.00 0.00 67 1001.9
20260507020442 -17 202 0.0 0.0 0.00 0.00 0.00 1004.3
20260507015942 -17 202 0.0 0.0 0.00 0.00 0.00 1004.2
20260507015442 -17 202 0.0 0.0 0.00 0.00 0.00 997.4
20260507014942 16 202 0.0 0.0 0.00 0.00 0.00 67 1002.2
20260507014442 16 202 0.0 0.0 0.00 0.00 0.00 67 1002.2
20260507013942 16 202 0.0 0.0 0.00 0.00 0.00 66 1002.6
20260507013442 16 202 0.0 0.0 0.00 0.00 0.00 66 1002.5
20260507012942 16 202 0.0 0.0 0.00 0.00 0.00 66 1002.3
20260507012442 16 202 0.0 0.0 0.00 0.00 0.00 66 1002.3
20260507011942 16 202 0.0 0.0 0.00 0.00 0.00 66 1003.3
20260507011442 -17 202 0.0 0.0 0.00 0.00 0.00 1004.3
20260507010942 -17 202 0.0 0.0 0.00 0.00 0.00 1004.0
20260507010442 17 202 0.0 0.0 0.00 0.00 0.00 65 998.6
20260507005942 17 202 0.0 0.0 0.00 0.00 0.00 65 1001.9
20260507005442 17 202 0.0 0.0 0.00 0.00 0.00 65 1001.9
20260507004942 17 202 0.0 0.0 0.00 0.00 0.00 65 1002.7
20260507004442 -17 202 0.0 0.0 0.00 0.00 0.00 1003.8
20260507003942 -17 202 0.0 0.0 0.00 0.00 0.00 1003.2
20260507003442 17 202 0.0 0.0 0.00 0.00 0.00 65 998.2
20260507002942 17 202 0.0 0.0 0.00 0.00 0.00 65 1001.4
20260507002442 17 202 0.0 8.0 0.00 0.00 0.00 65 1001.6
20260507001942 -17 202 0.0 8.0 0.00 0.00 0.00 1003.7
20260507001442 -17 202 0.0 0.0 0.00 0.00 0.00 1003.4
20260507000942 -17 202 0.0 0.0 0.00 0.00 0.00 996.6
20260507000442 17 202 8.0 8.0 0.00 0.00 0.00 65 999.2
20260506235942 17 202 8.0 8.0 0.00 0.00 0.00 65 1001.3
20260506235442 17 202 0.0 3.2 0.00 0.00 0.00 65 1001.4
20260506234942 17 202 4.8 4.8 0.00 0.00 0.00 65 1003.0
20260506234442 -17 202 0.0 0.0 0.00 0.00 0.00 1003.3
20260506233942 -17 202 0.0 0.0 0.00 0.00 0.00 1001.9
20260506233442 17 202 0.0 0.0 0.00 0.00 0.00 64 999.3
20260506232942 17 202 0.0 0.0 0.00 0.00 0.00 64 999.3
20260506232442 17 270 0.0 9.7 0.00 0.00 0.00 64 1001.2
20260506231942 17 270 0.0 1.6 0.00 0.00 0.00 64 1000.8
20260506231442 17 202 0.0 0.0 0.00 0.00 0.00 64 1002.6
20260506230942 17 270 0.0 0.0 0.00 0.00 0.00 64 1002.7
20260506230442 17 270 0.0 0.0 0.00 0.00 0.00 64 1002.6
20260506225942 17 270 0.0 0.0 0.00 0.00 0.00 64 1001.7
20260506225442 17 270 0.0 0.0 0.00 0.00 0.00 64 1000.8
20260506224942 17 270 0.0 9.7 0.00 0.00 0.00 64 1000.5
20260506224442 17 202 9.7 9.7 0.00 0.00 0.00 63 1000.3
20260506223942 18 202 0.0 0.0 0.00 0.00 0.00 63 1001.6
20260506223442 -17 270 0.0 0.0 0.00 0.00 0.00 1002.0
20260506222942 -17 270 0.0 0.0 0.00 0.00 0.00 999.3
20260506222442 18 270 0.0 0.0 0.00 0.00 0.00 63 996.1
20260506221942 18 270 0.0 0.0 0.00 0.00 0.00 63 998.8
20260506221442 18 202 0.0 4.8 0.00 0.00 0.00 63 999.7
20260506220942 18 202 0.0 0.0 0.00 0.00 0.00 62 1001.5
20260506220442 -17 112 0.0 0.0 0.00 0.00 0.00 1001.6
20260506215942 -17 112 0.0 0.0 0.00 0.00 0.00 1000.4
20260506215442 18 112 0.0 0.0 0.00 0.00 0.00 62 996.3
20260506214942 18 112 0.0 3.2 0.00 0.00 0.00 62 1000.0
20260506214442 18 180 0.0 3.2 0.00 0.00 0.00 62 999.4
20260506213942 18 22 0.0 3.2 0.00 0.00 0.00 61 999.0
20260506213442 18 90 0.0 0.0 0.00 0.00 0.00 61 999.5
20260506212942 18 202 0.0 4.8 0.00 0.00 0.00 61 1000.3
20260506212442 -17 202 0.0 0.0 0.00 0.00 0.00 1001.5
20260506211942 -17 202 0.0 0.0 0.00 0.00 0.00 1001.2
20260506211442 18 202 0.0 0.0 0.00 0.00 0.00 61 995.3
20260506210942 18 202 0.0 0.0 0.00 0.00 0.00 61 996.4
20260506210442 18 202 0.0 9.7 0.00 0.00 0.00 61 998.6
20260506205942 18 270 0.0 8.0 0.00 0.00 0.00 60 999.8
20260506205442 18 270 0.0 6.4 0.00 0.00 0.00 60 999.9
20260506204942 18 270 0.0 4.8 0.00 0.00 0.00 60 1000.5
20260506204442 -17 202 0.0 0.0 0.00 0.00 0.00 1001.6
20260506203942 -17 202 0.0 0.0 0.00 0.00 0.00 1000.9
20260506203442 19 202 0.0 0.0 0.00 0.00 0.00 59 997.4
20260506202942 19 202 0.0 1.6 0.00 0.00 0.00 59 997.4
20260506202442 19 22 1.6 6.4 0.00 0.00 0.00 59 999.3
20260506201942 19 270 0.0 0.0 0.00 0.00 0.00 58 999.6
20260506201442 -17 270 0.0 0.0 0.00 0.00 0.00 1001.1
20260506200942 -17 270 0.0 0.0 0.00 0.00 0.00 1000.7
20260506200442 20 270 0.0 0.0 0.00 0.00 0.00 57 998.0
20260506195942 20 270 0.0 0.0 0.00 0.00 0.00 57 998.0
20260506195442 20 270 0.0 0.0 0.00 0.00 0.00 57 998.5
20260506194942 20 90 0.0 1.6 0.00 0.00 0.00 57 999.7
20260506194442 20 90 0.0 3.2 0.00 0.00 0.00 57 998.4
20260506193942 20 0 0.0 0.0 0.00 0.00 0.00 57 997.9
20260506193442 20 202 0.0 4.8 0.00 0.00 0.00 56 999.2
20260506192942 20 202 0.0 3.2 0.00 0.00 0.00 56 999.6
20260506192442 20 0 3.2 3.2 0.00 0.00 0.00 56 1000.4
20260506191942 -17 180 0.0 0.0 0.00 0.00 0.00 1000.7
20260506191442 -17 180 0.0 0.0 0.00 0.00 0.00 999.7
20260506190942 20 180 0.0 0.0 0.00 0.00 0.00 55 997.6
20260506190442 20 180 0.0 0.0 0.00 0.00 0.00 55 997.6
20260506185942 20 22 0.0 0.0 0.00 0.00 0.00 55 999.0
20260506185442 20 180 0.0 0.0 0.00 0.00 0.00 55 999.3
20260506184942 20 202 0.0 0.0 0.00 0.00 0.00 55 1000.1
20260506184442 21 270 0.0 0.0 0.00 0.00 0.00 53 1000.9
20260506183942 21 270 0.0 0.0 0.00 0.00 0.00 53 1000.9
20260506183442 21 270 0.0 0.0 0.00 0.00 0.00 53 1000.8
20260506182942 21 270 0.0 0.0 0.00 0.00 0.00 53 1000.4
20260506182442 21 270 0.0 0.0 0.00 0.00 0.00 53 999.5
20260506181942 21 270 0.0 0.0 0.00 0.00 0.00 53 998.9
20260506181442 21 22 0.0 3.2 0.00 0.00 0.00 53 998.6
20260506180943 21 0 0.0 0.0 0.00 0.00 0.00 52 998.7
20260506180443 21 180 0.0 9.7 0.00 0.00 0.00 52 998.4
20260506175943 21 270 0.0 0.0 0.00 0.00 0.00 52 998.8
20260506175443 21 180 0.0 3.2 0.00 0.00 0.00 52 998.3
20260506174943 21 270 0.0 8.0 0.00 0.00 0.00 51 998.5
20260506174443 21 270 0.0 3.2 0.00 0.00 0.00 51 998.9
20260506173943 21 22 0.0 0.0 0.00 0.00 0.00 51 999.7
20260506173443 -17 270 0.0 0.0 0.00 0.00 0.00 1000.3
20260506172943 -17 270 0.0 0.0 0.00 0.00 0.00 998.8
20260506172443 22 270 0.0 0.0 0.00 0.00 0.00 10 995.1
20260506171943 22 270 0.0 0.0 0.00 0.00 0.00 10 1000.2
20260506171443 -17 270 0.0 0.0 0.00 0.00 0.00 1000.4
20260506170943 -17 270 0.0 0.0 0.00 0.00 0.00 999.8
20260506170443 22 270 0.0 0.0 0.00 0.00 0.00 47 995.6
20260506165943 22 270 0.0 0.0 0.00 0.00 0.00 47 995.7
20260506165443 22 270 0.0 4.8 0.00 0.00 0.00 47 999.1
20260506164943 23 0 0.0 12.9 0.00 0.00 0.00 47 998.9
20260506164443 23 112 0.0 0.0 0.00 0.00 0.00 47 999.7
20260506163943 -17 270 0.0 0.0 0.00 0.00 0.00 1000.3
20260506163443 -17 270 0.0 0.0 0.00 0.00 0.00 999.6
20260506162943 23 270 0.0 0.0 0.00 0.00 0.00 47 996.6
20260506162443 23 270 0.0 0.0 0.00 0.00 0.00 47 1000.7